[[{"header":{"parameterUnit":"m.s-1","parameterCategory":1,"la1":30.2991,"la2":30.254,"lo1":-89.0895,"lo2":-89.0444,"dy":0.0017,"dx":0.0017,"nx":28,"ny":28,"refTime":"2024-08-07T03:00:00:Z","depth":0,"parameterNumber":2,"parameterNumberName":"U-component_of_WINDS"},"data":[0,0,0,0,0,0,0,0,0,0,0,0,0,0,0,0,0,0,0,0,0,0,0,0,0,0,0,0,0,0,0,0,0,0,0,0,0,0,0,0,0,0,0,0,0,0,0,0,0,0,0,0,0,0,0,0,0,0,2.6888,2.6889,0,2.696,2.6961,2.6962,2.6928,2.6926,2.6924,2.6922,2.6996,2.6999,2.7003,0,0,0,0,0,0,0,0,0,0,0,0,0,2.6722,2.6725,2.6888,2.6889,2.689,2.696,2.6961,2.6962,2.6928,2.6926,2.6924,2.6921,2.6994,2.6999,2.7003,0,0,0,0,0,0,0,0,0,0,0,0,0,2.6794,2.6726,2.6888,2.6881,2.6882,2.696,2.6961,2.6962,2.6928,2.6926,2.6923,2.692,2.6993,2.6998,2.7004,2.7093,0,0,2.702,2.7023,0,0,0,0,0,0,0,0,2.679,2.68,2.6882,2.6882,2.6882,2.6932,2.6929,2.7006,2.6929,2.6911,2.6922,2.6919,2.6977,2.6983,2.7003,2.7096,2.7099,2.7021,2.7024,2.7027,2.7028,0,0,0,0,0,0,0,2.6785,2.6797,2.6917,2.6883,2.6883,2.6875,2.6882,2.6944,2.6958,2.6912,2.691,2.6919,2.6976,2.6998,2.7004,2.71,2.7021,2.7026,2.7029,2.7031,2.7271,2.7274,0,0,0,0,0,0,2.678,2.6793,2.6914,2.6919,2.6828,2.688,2.6888,2.6919,2.6957,2.6961,2.6921,2.6917,2.699,2.6998,2.7007,2.7114,2.7027,2.7032,2.7035,2.7268,2.7272,2.7275,0,0,0,0,0,0,2.6777,2.6791,2.6911,2.6855,2.687,2.6886,2.6921,2.6922,2.6943,2.6964,2.6967,2.694,2.6988,2.6999,2.7072,2.7116,2.7034,2.7039,2.7265,2.7269,2.7274,2.7329,0,0,0,0,0,0,2.6772,2.679,2.6824,2.6856,2.6873,2.6975,2.6923,2.6925,2.6953,2.6948,2.6983,2.6986,2.6986,2.7064,2.7077,2.7122,2.7044,2.7261,2.7267,2.7272,2.7323,2.7335,2.7345,0,0,0,0,0,2.6766,2.6836,2.6826,2.6841,2.6916,2.6978,2.6987,2.6987,2.6956,2.6991,2.7004,2.6985,2.7109,2.7072,2.7086,2.7134,2.7258,2.7265,2.7272,2.7318,2.7333,2.7345,0,0,0,0,0,0,2.6808,2.684,2.6829,2.6912,2.6942,2.6972,2.7015,2.7002,2.7042,2.7036,2.7033,2.7041,2.7117,2.7132,2.709,2.7222,2.7179,2.7189,2.7209,2.7223,2.7234,2.7228,2.7048,0,0,0,0,0,2.6827,2.6875,2.6901,2.6971,2.6987,2.6999,2.7026,2.7023,2.7054,2.7067,2.7086,2.7118,2.7164,2.7194,2.7238,2.7326,2.7333,2.7366,2.7376,2.7385,2.7394,2.7442,2.7457,2.7298,2.7298,2.7298,0,0,2.6866,2.689,2.692,2.698,2.7003,2.7054,2.701,2.7064,2.7101,2.7075,2.7145,2.7161,2.7196,2.7277,2.7313,2.7292,2.744,2.7394,2.7401,2.7405,2.7451,2.7466,2.748,2.7303,2.7302,2.7301,0,0,2.6964,2.6986,2.7048,2.7073,2.7109,2.7117,2.7132,2.7164,2.7173,2.7243,2.7225,2.727,2.7349,2.7375,2.7399,2.7508,2.7492,2.7522,2.7579,2.7626,2.7639,2.765,2.7689,2.7703,2.7531,2.7531,2.7531,0,2.7008,2.7083,2.7081,2.7138,2.7165,2.7144,2.7207,2.7231,2.728,2.7299,2.7275,2.7375,2.7397,2.7484,2.7511,2.7531,2.7548,2.7518,2.7637,2.7648,2.7658,2.7696,2.7711,2.7535,2.7534,2.7534,2.7534,0,2.7136,2.7188,2.7233,2.7282,2.7314,2.7373,2.7381,2.7414,2.7409,2.7419,2.7492,2.7518,2.7567,2.7587,2.7582,2.7674,2.766,2.7637,2.7593,2.7677,2.7712,2.7727,2.754,2.7538,2.7537,2.7537,0,0,2.7261,2.7308,2.7325,2.7347,2.7387,2.7427,2.7486,2.7534,2.7563,2.7597,2.7647,2.7716,2.7694,2.7721,2.7719,2.7761,2.7847,2.7732,2.7733,2.7753,2.7951,2.7968,2.7985,2.7836,2.7839,2.7841,2.7948,0,2.7361,2.7464,2.7465,2.756,2.7609,2.7591,2.7642,2.7672,2.7684,2.7727,2.7739,2.7788,2.7756,2.7772,2.7813,2.7828,2.7886,2.782,2.7883,2.7885,2.7874,2.8003,2.8022,2.8121,2.7962,2.7964,2.7966,0,2.7492,2.7531,2.7631,2.7665,2.7685,2.7731,2.7776,2.7818,2.7852,2.7857,2.7888,2.788,2.7941,2.7896,2.7979,2.7934,2.796,2.7972,2.7976,2.7981,2.793,2.8012,2.8152,2.8167,2.7987,2.7985,2.7984,0,2.7573,2.7652,2.7722,2.7741,2.7782,2.7815,2.7833,2.7865,2.7894,2.7934,2.7953,2.7999,2.8024,2.806,2.8066,2.8032,2.815,2.8105,2.8157,2.8157,2.8182,2.818,2.8328,2.8199,2.8198,2.8198,2.8198,0,2.7685,2.7747,2.7759,2.7802,2.7871,2.7873,2.7941,2.7957,2.7985,2.8031,2.8019,2.8062,2.8067,2.8112,2.8116,2.8185,2.8197,2.8203,2.8204,2.8204,2.8204,2.8221,2.8214,2.8202,2.8201,2.82,2.82,0,2.7788,2.7798,2.7873,2.7906,2.7916,2.7966,2.7994,2.8035,2.8046,2.8105,2.8119,2.8136,2.8188,2.8197,2.8259,2.8262,2.8345,2.8338,2.8333,2.8333,2.8384,2.8379,2.8548,2.857,2.8426,2.8428,2.8429,0,2.7858,2.7906,2.7944,2.7974,2.7995,2.8043,2.8074,2.8077,2.8109,2.8152,2.8189,2.8241,2.8282,2.8367,2.8385,2.8433,2.8427,2.8483,2.8434,2.8434,2.8428,2.8425,2.843,2.8492,2.8494,2.8495,2.8496,0,2.7983,2.7986,2.803,2.8077,2.8114,2.815,2.8185,2.8211,2.8219,2.8256,2.831,2.8342,2.8406,2.8457,2.8505,2.8524,2.8512,2.8511,2.8526,2.8527,2.8522,2.8526,2.8359,2.8507,2.8506,2.8505,2.8505,2.8504,2.8072,2.8113,2.8147,2.8197,2.8224,2.8257,2.8298,2.8314,2.836,2.8412,2.8411,2.8471,2.8505,2.8567,2.859,2.8637,2.8619,2.864,2.8645,2.865,2.8655,2.8515,2.8646,2.8645,2.8645,2.8645,2.8645,0,2.8195,2.8217,2.8263,2.8312,2.8352,2.8338,2.8376,2.841,2.8462,2.8495,2.8537,2.8599,2.865,2.8672,2.8722,2.8755,2.8751,2.8768,2.8766,2.877,2.8668,2.8651,2.8771,2.8771,2.8771,2.8771,2.8771,2.8771,2.8265,2.8335,2.8342,2.8426,2.8446,2.8505,2.8528,2.8559,2.8585,2.8656,2.8698,2.8712,2.8741,2.8793,2.8839,2.8844,2.8863,2.8883,2.8886,2.879,2.8777,2.8765,2.8749,2.8887,2.8888,2.8984,2.8985,2.8986]},{"header":{"parameterUnit":"m.s-1","parameterCategory":1,"la1":30.2991,"la2":30.254,"lo1":-89.0895,"lo2":-89.0444,"dy":0.0017,"dx":0.0017,"nx":28,"ny":28,"refTime":"2024-08-07T03:00:00:Z","depth":0,"parameterNumber":3,"parameterNumberName":"V-component_of_WINDS"},"data":[0,0,0,0,0,0,0,0,0,0,0,0,0,0,0,0,0,0,0,0,0,0,0,0,0,0,0,0,0,0,0,0,0,0,0,0,0,0,0,0,0,0,0,0,0,0,0,0,0,0,0,0,0,0,0,0,0,0,-2.7659,-2.766,0,-2.7778,-2.7779,-2.7781,-2.7761,-2.7759,-2.7757,-2.7755,-2.7877,-2.7882,-2.7887,0,0,0,0,0,0,0,0,0,0,0,0,0,-2.7418,-2.7422,-2.7659,-2.7661,-2.7662,-2.7778,-2.7779,-2.7781,-2.7761,-2.7759,-2.7756,-2.7754,-2.7876,-2.7882,-2.7888,0,0,0,0,0,0,0,0,0,0,0,0,0,-2.7528,-2.7424,-2.7659,-2.7666,-2.7668,-2.7777,-2.7779,-2.7781,-2.7762,-2.7758,-2.7755,-2.7752,-2.7874,-2.7881,-2.7889,-2.7999,0,0,-2.7913,-2.7916,0,0,0,0,0,0,0,0,-2.7522,-2.7537,-2.7664,-2.7666,-2.7668,-2.7751,-2.7739,-2.7854,-2.7762,-2.7726,-2.7755,-2.7751,-2.7838,-2.7848,-2.7878,-2.8005,-2.801,-2.7913,-2.7918,-2.7921,-2.7924,0,0,0,0,0,0,0,-2.7514,-2.7532,-2.7706,-2.7665,-2.7668,-2.7664,-2.7676,-2.7761,-2.7798,-2.7729,-2.7728,-2.7742,-2.7839,-2.787,-2.788,-2.8012,-2.7913,-2.792,-2.7925,-2.7928,-2.8237,-2.824,0,0,0,0,0,0,-2.7504,-2.7526,-2.7702,-2.771,-2.7586,-2.7671,-2.7685,-2.7728,-2.7797,-2.7805,-2.7745,-2.7741,-2.7858,-2.7871,-2.7885,-2.8019,-2.7921,-2.7929,-2.7933,-2.8233,-2.8237,-2.8241,0,0,0,0,0,0,-2.7499,-2.752,-2.7698,-2.7617,-2.764,-2.7678,-2.7727,-2.7732,-2.7763,-2.7809,-2.7815,-2.777,-2.7856,-2.7874,-2.7971,-2.8023,-2.7932,-2.7939,-2.8229,-2.8234,-2.8239,-2.8288,0,0,0,0,0,0,-2.7492,-2.7519,-2.756,-2.7618,-2.7644,-2.7781,-2.773,-2.7736,-2.7776,-2.7772,-2.7834,-2.7841,-2.7855,-2.7959,-2.7979,-2.8032,-2.7945,-2.8224,-2.8231,-2.8238,-2.8281,-2.8294,-2.8304,0,0,0,0,0,-2.7484,-2.7569,-2.7562,-2.7584,-2.7697,-2.7784,-2.7799,-2.7813,-2.7781,-2.7823,-2.7853,-2.7839,-2.8014,-2.7969,-2.7991,-2.8047,-2.8221,-2.8229,-2.8237,-2.8276,-2.8291,-2.8304,0,0,0,0,0,0,-2.7515,-2.7576,-2.757,-2.7676,-2.7725,-2.7781,-2.7835,-2.7828,-2.7887,-2.7881,-2.7896,-2.7911,-2.8009,-2.8038,-2.7987,-2.8158,-2.8113,-2.8126,-2.8136,-2.815,-2.8162,-2.8153,-2.7952,0,0,0,0,0,-2.7535,-2.76,-2.765,-2.7739,-2.7764,-2.7795,-2.7834,-2.7841,-2.7892,-2.7913,-2.7949,-2.8,-2.8067,-2.811,-2.8174,-2.8286,-2.83,-2.8335,-2.8347,-2.8356,-2.8367,-2.8429,-2.8446,-2.8267,-2.8267,-2.8267,0,0,-2.7575,-2.7617,-2.7657,-2.7747,-2.7785,-2.7854,-2.7813,-2.7886,-2.7938,-2.7924,-2.8018,-2.8047,-2.8105,-2.8211,-2.8259,-2.8238,-2.8419,-2.8366,-2.8373,-2.8379,-2.8439,-2.8456,-2.8471,-2.8273,-2.8272,-2.8271,0,0,-2.7684,-2.7722,-2.7801,-2.7841,-2.79,-2.792,-2.7939,-2.7997,-2.8015,-2.811,-2.8102,-2.8163,-2.8277,-2.8319,-2.8355,-2.8482,-2.8472,-2.8502,-2.8562,-2.8623,-2.8637,-2.865,-2.8696,-2.8712,-2.8513,-2.8513,-2.8513,0,-2.7727,-2.7829,-2.7842,-2.7917,-2.7957,-2.7949,-2.8029,-2.8067,-2.8145,-2.8173,-2.8148,-2.8292,-2.833,-2.8446,-2.8477,-2.8506,-2.8529,-2.8495,-2.8634,-2.8647,-2.8659,-2.8703,-2.872,-2.8516,-2.8516,-2.8516,-2.8515,0,-2.788,-2.7951,-2.8007,-2.8082,-2.8129,-2.8206,-2.8232,-2.8278,-2.8281,-2.8304,-2.8402,-2.8448,-2.8521,-2.8549,-2.8553,-2.8666,-2.8651,-2.863,-2.8585,-2.8679,-2.872,-2.8737,-2.8521,-2.852,-2.8519,-2.8518,0,0,-2.801,-2.8092,-2.8113,-2.8148,-2.8213,-2.8269,-2.8347,-2.8418,-2.8458,-2.8512,-2.8578,-2.8675,-2.8657,-2.8698,-2.8706,-2.876,-2.8859,-2.8733,-2.8734,-2.8755,-2.8988,-2.9003,-2.9022,-2.8853,-2.8856,-2.8859,-2.8983,0,-2.8126,-2.8262,-2.8277,-2.8399,-2.8466,-2.8459,-2.8527,-2.8576,-2.86,-2.8661,-2.8688,-2.8757,-2.8727,-2.8752,-2.8805,-2.8835,-2.8906,-2.8827,-2.8915,-2.8918,-2.8901,-2.9044,-2.9061,-2.9175,-2.8999,-2.9002,-2.9004,0,-2.8278,-2.8337,-2.8466,-2.8523,-2.8552,-2.8612,-2.868,-2.8738,-2.8793,-2.8807,-2.8854,-2.8856,-2.8938,-2.889,-2.9003,-2.8949,-2.8987,-2.9008,-2.9012,-2.9021,-2.8967,-2.9057,-2.9212,-2.923,-2.903,-2.9028,-2.9026,0,-2.8361,-2.8472,-2.8564,-2.8594,-2.8663,-2.8706,-2.8737,-2.879,-2.8832,-2.8892,-2.892,-2.8988,-2.9026,-2.9079,-2.91,-2.9063,-2.9213,-2.9166,-2.9227,-2.9227,-2.9259,-2.9256,-2.9422,-2.9283,-2.9282,-2.9282,-2.9282,0,-2.8488,-2.8567,-2.8603,-2.8659,-2.8748,-2.8765,-2.8854,-2.8883,-2.893,-2.8993,-2.8991,-2.9051,-2.9075,-2.9138,-2.9155,-2.9247,-2.9264,-2.9278,-2.9282,-2.9278,-2.9277,-2.9303,-2.9296,-2.9287,-2.9286,-2.9285,-2.9284,0,-2.8596,-2.8622,-2.8722,-2.878,-2.8797,-2.886,-2.891,-2.8965,-2.899,-2.9069,-2.9089,-2.9128,-2.9202,-2.9229,-2.9319,-2.9331,-2.9438,-2.9434,-2.9419,-2.942,-2.948,-2.9474,-2.9668,-2.9695,-2.9538,-2.9539,-2.954,0,-2.8675,-2.8736,-2.8801,-2.8843,-2.8875,-2.8943,-2.8987,-2.9006,-2.9052,-2.9121,-2.9168,-2.9242,-2.9303,-2.9423,-2.9459,-2.9529,-2.9528,-2.9592,-2.9538,-2.9534,-2.953,-2.9526,-2.9533,-2.9601,-2.9603,-2.9604,-2.9605,0,-2.8813,-2.8824,-2.8886,-2.8954,-2.9007,-2.9061,-2.9114,-2.9149,-2.9177,-2.9229,-2.9305,-2.9352,-2.9445,-2.952,-2.9592,-2.9624,-2.9621,-2.9622,-2.964,-2.9637,-2.9626,-2.9633,-2.9446,-2.9617,-2.9616,-2.9615,-2.9614,-2.9614,-2.8909,-2.8963,-2.9018,-2.9088,-2.9131,-2.918,-2.9236,-2.9267,-2.9331,-2.9408,-2.9417,-2.9499,-2.9555,-2.9651,-2.9687,-2.9753,-2.9736,-2.9761,-2.9768,-2.9774,-2.9779,-2.9615,-2.9766,-2.9766,-2.9766,-2.9765,-2.9765,0,-2.9048,-2.9083,-2.9147,-2.9222,-2.9278,-2.9269,-2.9327,-2.9375,-2.9448,-2.9499,-2.9559,-2.9648,-2.9721,-2.9763,-2.9836,-2.9881,-2.9881,-2.9899,-2.9896,-2.9904,-2.979,-2.9767,-2.9898,-2.9898,-2.9898,-2.9898,-2.9898,-2.9898,-2.9126,-2.9218,-2.9235,-2.9349,-2.9383,-2.9464,-2.9499,-2.9545,-2.9587,-2.9686,-2.9746,-2.9774,-2.9823,-2.9899,-2.9966,-2.9977,-3.0004,-3.0024,-3.0034,-2.9926,-2.9912,-2.9899,-2.9878,-3.003,-3.003,-3.0143,-3.0144,-3.0144]}]]